SCP
1 1 1 1 1 1 1 1 1 1 1 0 0 0 0 0 0 0 0 0 0 0 0 0 0 0 0 0 0 0 0 0 0 0 0 0 0 0 0 0 0 0 0
1 1 1 1 1 1 1 1 1 1 1 0 0 0 0 0 0 0 0 0 0 0 0 0 0 0 0 0 0 0 0 0 0 0 0 0 0 0 0 0 0 0 0
1 1 1 1 1 1 1 1 1 1 1 1 0 0 0 0 0 0 0 0 0 0 0 0 0 0 0 0 0 0 0 0 0 0 0 0 0 0 0 0 0 0 0
1 1 1 1 1 1 1 1 1 1 1 1 1 0 0 0 0 0 0 0 0 0 0 0 0 0 0 0 0 0 0 0 0 0 0 0 0 0 0 0 0 0 0
1 1 1 1 1 1 1 1 1 1 1 1 1 0 0 0 0 0 0 0 0 0 0 0 0 0 0 0 0 0 0 0 0 0 0 0 0 0 0 0 0 0 0
1 1 1 1 1 1 1 1 1 1 1 1 1 0 0 0 0 0 0 0 0 0 0 0 0 0 0 0 0 0 0 0 0 0 0 0 0 0 0 0 0 0 0
1 1 1 1 1 1 1 1 1 1 1 1 1 1 0 0 0 0 0 0 0 0 0 0 0 0 0 0 0 0 0 0 0 0 0 0 0 0 0 0 0 0 0
1 1 1 1 1 1 1 1 1 1 1 1 1 1 0 0 0 0 0 0 0 0 0 0 0 0 0 0 0 0 0 0 0 0 0 0 0 0 0 0 0 0 0
1 1 1 1 1 1 1 1 1 1 1 1 1 1 0 0 0 0 0 0 0 0 0 0 0 0 0 0 0 0 0 0 0 0 0 0 0 0 0 0 0 0 0
1 1 1 1 1 1 1 1 1 1 1 1 1 1 0 0 0 0 0 0 0 0 0 0 0 0 0 0 0 0 0 0 0 0 0 0 0 0 0 0 0 0 0
1 1 1 1 1 1 1 1 1 1 1 1 1 1 0 0 0 0 0 0 0 0 0 0 0 0 0 0 0 0 0 0 0 0 0 0 0 0 0 0 0 0 0
1 1 1 1 1 1 1 1 1 1 1 1 1 1 0 0 0 0 0 0 0 0 0 0 0 0 0 0 0 0 0 0 0 0 0 0 0 0 0 0 0 0 0
1 1 1 1 1 1 1 1 1 1 1 1 1 1 0 0 0 0 0 0 0 0 0 0 0 0 0 0 0 0 0 0 0 0 0 0 0 0 0 0 0 0 0
1 1 1 1 1 1 1 1 1 1 1 1 1 1 1 0 0 0 0 0 0 0 0 0 0 0 0 0 0 0 0 0 0 0 0 0 0 0 0 0 0 0 0
2 2 -7 -12 -7 2 1 1 2 2 1 1 1 1 1 0 0 0 0 0 0 0 0 0 0 0 0 0 0 0 0 0 0 0 0 0 0 0 0 0 0 0 0
2 2 -12 -25 -12 2 2 2 2 2 2 1 1 1 1 1 1 0 0 0 0 0 0 0 0 0 0 0 0 -0 0 0 0 0 0 0 0 0 0 0 0 0 0
1 2 -6 -12 -6 2 2 2 2 2 2 2 1 1 1 1 1 0 0 0 0 0 0 0 0 0 0 0 0 -0 0 0 0 0 0 0 0 0 0 0 0 0 0
1 2 2 2 2 2 2 2 2 2 2 2 2 1 1 1 1 0 0 0 0 0 0 0 0 0 0 0 0 0 0 0 0 0 0 0 0 0 0 0 0 0 0
2 2 2 2 2 2 2 2 2 2 2 2 2 2 1 1 1 0 0 0 0 0 0 0 0 0 0 0 0 0 0 0 0 0 0 0 0 0 0 0 0 0 0
2 2 2 2 3 2 2 2 2 2 2 2 2 2 1 1 1 0 0 0 0 0 0 0 0 0 0 0 0 0 0 0 0 0 0 0 0 0 0 0 0 0 0
3 3 3 3 3 3 2 2 2 2 2 2 2 1 1 1 0 0 0 0 0 0 0 0 0 0 0 0 0 0 0 0 0 0 0 0 0 0 0 0 0 0 0
4 3 3 3 3 2 2 2 2 2 2 2 2 1 1 0 0 0 0 0 0 0 0 0 0 0 0 0 0 0 0 0 0 0 0 0 0 0 0 0 0 0 0
4 4 4 3 3 2 2 2 2 2 2 2 1 1 1 0 0 0 0 0 0 0 0 0 0 0 0 0 0 0 0 0 0 0 0 0 0 0 0 0 0 0 0
3 3 3 3 3 2 2 2 2 2 2 1 1 1 0 0 0 0 0 0 0 0 0 0 0 0 0 0 0 0 0 0 0 0 0 0 0 0 0 0 0 0 0
3 3 3 3 2 2 2 1 1 1 1 1 1 1 0 0 0 0 0 0 0 0 0 0 0 0 0 0 0 0 0 0 0 0 0 0 0 0 0 0 0 0 0
2 2 2 2 2 2 1 1 1 1 1 1 1 1 0 0 0 0 0 0 0 0 0 0 0 0 0 0 0 0 0 0 0 0 0 0 0 0 0 0 0 0 0
Wind_Speed
9 9 10 11 10 8 8 8 7 6 5 3 3 3 2 2 2 3 4 4 4 4 4 3 2 2 2 3 2 2 2 1 1 1 1 2 1 1 1 2 2 3 4
8 9 9 10 10 10 9 8 8 7 6 4 3 3 2 2 2 2 2 3 4 4 4 3 3 2 2 2 2 2 1 1 1 2 1 1 3 2 1 1 2 2 2
13 12 11 10 10 10 10 9 8 7 6 5 3 2 2 1 1 1 1 2 3 3 3 3 3 3 2 2 3 3 3 2 1 2 3 2 2 2 2 1 1 1 1
13 12 11 11 12 11 9 8 8 7 6 6 5 5 4 3 3 2 2 2 3 3 3 3 4 3 2 2 3 3 2 3 2 1 2 3 3 2 1 2 1 1 1
14 13 13 12 11 10 9 8 8 7 6 6 6 5 3 3 2 2 3 2 2 2 3 3 3 3 2 3 3 2 2 2 3 2 2 1 1 2 2 2 2 1 1
12 11 10 8 8 8 8 8 8 7 7 6 6 6 6 5 4 3 3 2 1 2 3 3 3 3 2 3 3 3 3 3 3 2 2 2 2 2 3 3 2 2 1
11 11 11 10 9 9 9 8 8 7 7 7 6 7 6 6 6 4 4 3 2 2 3 3 3 2 3 3 2 2 3 3 3 3 3 2 3 3 3 3 2 2 1
10 11 12 12 11 11 10 9 9 7 7 7 7 6 6 4 4 4 4 3 3 2 3 3 3 2 2 2 2 2 2 2 3 3 3 2 2 2 3 3 3 1 1
11 11 11 11 10 10 10 10 9 8 7 7 6 6 5 5 5 4 4 3 2 2 3 3 2 2 2 2 2 1 2 2 2 2 2 2 2 2 2 2 3 3 2
9 10 10 10 10 9 8 9 9 8 7 7 7 6 6 5 5 4 4 3 3 2 2 2 2 1 1 1 1 1 1 1 1 1 1 1 1 1 1 2 2 2 3
10 10 9 9 9 8 8 8 8 7 6 7 6 6 5 5 4 4 4 3 3 3 3 2 2 1 1 0 1 1 1 1 1 1 1 1 0 0 0 1 1 1 2
8 9 9 8 8 9 8 8 8 7 7 7 6 5 5 5 4 4 3 3 3 2 2 2 2 2 1 0 1 1 0 1 1 1 0 1 0 0 0 1 1 1 2
6 6 7 7 8 9 9 8 8 8 7 7 7 6 5 5 5 4 4 4 3 2 2 3 2 1 1 0 1 1 1 1 1 1 1 1 1 1 1 1 1 1 1
6 7 7 7 8 8 7 7 7 7 7 7 7 6 5 5 5 4 4 4 3 3 2 2 2 2 1 1 1 1 1 0 0 0 1 1 1 1 1 1 1 1 1
6 7 7 7 7 7 7 7 7 7 8 8 7 6 5 5 5 4 4 4 3 3 3 3 2 2 1 1 1 1 1 1 1 1 0 1 2 2 2 2 2 2 2
8 8 7 7 7 8 8 8 8 8 8 8 7 6 6 6 5 5 4 4 3 3 3 3 2 2 1 1 2 2 1 1 1 1 1 1 1 2 2 2 2 3 3
7 7 7 7 7 7 8 9 8 8 8 8 7 7 7 6 5 5 5 4 3 3 3 2 2 2 1 1 2 2 2 2 2 1 1 1 2 2 1 2 2 2 2
7 7 7 7 6 6 6 7 8 8 8 8 7 7 7 6 5 5 4 4 3 3 2 2 2 2 1 2 2 3 3 2 2 2 2 2 1 1 2 2 2 2 1
6 6 6 7 6 6 7 7 7 7 8 8 7 7 7 7 6 5 4 3 3 3 2 3 3 2 1 2 3 3 2 2 2 2 2 2 2 1 3 3 2 2 2
5 5 5 6 6 5 7 8 7 7 7 7 7 7 7 7 7 6 4 3 3 3 3 2 2 2 1 2 3 3 2 2 1 2 2 3 3 3 3 3 3 2 1
4 5 6 6 6 6 8 8 7 7 6 6 6 5 5 5 5 4 3 3 3 3 3 2 2 2 2 2 2 3 2 2 2 1 1 1 2 3 3 3 2 1 1
5 6 6 5 4 6 8 7 6 5 6 7 6 6 5 4 4 5 4 4 4 3 2 2 1 1 1 1 2 3 3 3 3 1 0 0 2 3 3 2 2 2 2
5 5 6 5 4 5 7 7 5 6 7 7 6 6 5 3 3 4 4 3 3 3 2 2 2 1 0 0 1 3 3 3 2 1 2 2 2 2 1 1 2 2 2
5 5 7 7 4 4 4 5 6 7 8 8 6 5 5 4 3 3 3 3 3 3 3 3 2 2 1 0 0 1 2 2 2 1 1 2 2 2 2 1 1 1 0
4 5 6 6 5 4 5 5 6 7 8 7 6 5 5 5 4 3 2 3 2 3 4 3 3 3 2 3 4 3 2 2 2 2 2 2 1 1 1 1 1 1 1
4 5 5 5 4 4 4 4 5 7 7 6 5 4 4 4 4 4 2 2 1 1 2 3 3 2 3 4 5 5 4 4 5 4 2 1 1 1 1 1 1 1 1
Wind_Direction
185 175 172 163 160 161 160 161 161 169 160 155 154 154 170 184 185 189 190 185 183 176 172 174 174 171 173 188 177 161 167 209 161 89 359 341 306 244 230 214 195 203 208
175 175 172 167 168 170 168 165 168 171 173 173 165 163 163 186 190 192 190 194 187 184 180 173 179 180 173 185 183 162 163 213 165 145 118 339 340 340 273 195 183 206 205
179 180 178 176 171 174 175 176 175 172 174 167 146 134 114 96 111 168 186 203 181 178 170 171 173 182 178 191 197 183 174 196 220 170 156 167 225 292 316 270 197 190 194
179 182 181 177 178 180 176 172 173 171 173 166 163 164 170 183 201 189 189 202 191 186 178 176 178 185 186 190 201 190 185 177 207 225 198 190 176 180 277 321 300 229 240
180 183 183 181 178 175 173 172 170 173 176 175 175 172 178 189 186 168 176 194 204 199 188 181 182 188 195 198 205 197 187 185 195 201 203 213 209 184 187 251 282 312 268
177 178 173 161 165 166 166 166 168 178 179 176 176 178 180 179 172 175 177 186 194 205 203 190 192 200 205 205 205 203 197 207 202 203 198 192 195 200 190 214 237 257 273
168 166 163 161 165 168 169 168 170 179 180 179 184 187 187 183 183 183 181 178 180 193 211 199 195 205 211 209 202 203 211 208 205 210 217 214 218 198 185 185 219 242 270
168 171 171 169 171 173 173 172 176 181 182 184 189 190 186 185 189 188 180 184 193 202 202 193 190 203 208 211 204 212 220 216 217 226 220 223 233 207 186 182 181 210 269
173 174 172 171 171 173 178 175 177 181 185 188 186 188 188 185 183 179 178 182 191 188 177 180 181 191 196 204 198 220 233 224 221 225 225 230 240 215 209 185 174 175 203
175 173 174 174 173 175 177 174 178 182 185 186 188 189 189 187 181 175 181 182 177 167 155 167 171 173 189 198 182 219 224 197 231 212 206 241 249 221 186 179 184 177 177
176 174 173 173 170 169 173 175 179 180 183 185 183 176 176 177 174 174 180 172 163 154 153 160 144 121 113 148 151 185 161 177 240 246 202 250 259 76 186 170 171 164 147
174 172 167 164 166 168 171 174 175 177 180 175 165 165 164 160 163 170 174 162 156 160 157 138 131 136 127 231 180 203 181 184 232 254 209 244 271 89 172 142 146 157 151
169 161 155 161 169 170 171 170 174 174 167 161 156 155 156 157 162 163 155 146 148 143 130 128 129 133 134 138 183 179 164 179 203 212 184 206 155 182 164 138 155 170 152
169 168 166 172 172 170 166 163 166 166 158 151 150 154 160 160 159 154 148 144 139 132 134 134 136 138 130 116 103 135 133 105 135 151 164 170 164 172 175 159 161 147 131
165 173 174 171 165 160 159 163 167 167 159 153 155 162 159 151 146 146 146 139 133 136 137 132 126 121 121 122 137 146 136 127 87 40 91 126 115 113 139 143 158 147 143
180 174 163 157 162 166 165 167 171 168 157 157 161 161 154 149 146 145 141 136 134 133 128 131 133 122 128 118 124 133 139 134 128 88 42 85 88 86 106 133 147 153 158
183 170 164 162 166 172 171 173 167 162 157 160 164 161 158 157 159 153 146 145 141 131 127 132 130 131 107 78 91 110 125 120 119 112 93 76 62 83 106 91 84 95 136
179 171 166 163 168 173 167 161 156 159 163 164 166 162 158 156 153 150 154 155 147 146 145 142 141 135 84 78 83 100 107 97 94 102 111 104 51 52 103 103 82 57 42
176 174 168 161 161 163 158 151 156 159 162 164 165 164 161 156 155 159 164 159 151 150 153 152 150 141 94 73 99 114 104 95 88 95 93 100 84 59 106 106 98 63 23
162 158 151 140 146 157 151 146 154 156 166 169 164 159 160 158 160 164 164 156 147 153 147 144 148 146 139 103 104 125 120 108 82 60 65 74 82 80 107 112 114 104 43
141 140 137 143 153 152 144 147 152 167 168 152 144 144 149 149 149 149 149 143 138 134 137 142 142 143 142 130 116 131 142 144 123 95 54 23 69 88 102 108 119 157 139
119 129 127 133 145 142 140 145 158 158 138 134 136 134 132 140 146 141 139 135 139 141 144 134 120 107 141 141 140 129 127 133 137 150 185 68 80 80 96 104 88 93 92
111 116 118 116 114 131 137 143 151 141 136 134 139 140 132 134 153 151 146 139 143 149 151 143 150 174 82 49 96 121 121 117 128 146 142 126 105 91 80 78 94 102 98
110 109 110 112 108 115 123 135 138 137 137 135 143 146 140 148 155 140 144 151 161 165 167 174 175 173 156 104 71 94 109 101 92 79 87 93 81 79 58 32 30 54 131
109 118 120 121 122 116 115 123 136 140 140 142 149 152 149 154 148 138 148 165 182 181 173 188 179 169 188 211 179 157 150 156 159 121 81 63 53 40 12 358 348 347 3
127 119 116 118 118 117 118 127 141 145 143 145 155 161 159 157 153 144 108 57 105 122 162 169 165 178 183 173 170 172 172 168 152 128 125 158 182 208 227 235 268 269 256